Voltar ao catálogo

COSMOS 2491 DEB

AtivoPO
NORAD 45030·DEBRIS·🇷🇺 Russia

Lançado Dec 25, 2013 de Plesetsk Cosmodrome

Loading…

Próximas Passagens (próximas 24 horas)

TLE

AtualizadoSource: Space-Track

Época: Sep 11, 2026, 03:27 UTC

1 45030U 13076T   26254.14393997  .00004266  00000-0  17529-1 0  9996
2 45030  82.3972  43.2525 0289320 281.5616  75.3135 12.72417232307048

Acompanhe COSMOS 2491 DEB em tempo real com AllMySat

Download on the App Store